DUCHIFAT-1

Last updated on Tue Jul 08 2025 00:03:06 GMT+0000 (Coordinated Universal Time)

1 40021U 14033M 25188.59945630 .00016509 00000+0 57873-3 0 9996 2 40021 98.0941 205.3903 0007977 206.3654 153.7179 15.29520920602600
UTC large
Height (km)
Speed (km/s)
/
Latitude / Longitude
Inclination (degrees)
Orbital Period (minutes)
Azimuth
Elevation
Range (km)
Doppler Factor

Next 0 passes for location: London (51.5072 / 0.1276)

Sorry there are no passes over London.